Location: Cheb
(50.0670°N, 12.3670°E)
Time: 12:43:40
(UTC+02:00)

ISS - Pass Details

Date: 29 March 2019
Orbit: 408 x 410 km, 51.6° (Epoch: 25 April)

Event Time Altitude Azimuth Distance (km) Brightness Sun altitude
Rises 20:03:59 0° 274° (W) 2,336 1.5 -14.2°
Reaches altitude 10° 20:06:05 10° 278° (W) 1,474 0.3 -14.5°
Maximum altitude 20:09:22 64° 1° (N) 459 -3.5 -15.0°
Enters shadow 20:10:55 28° 74° (ENE) 802 -2.8 -15.2°
